[[{"header":{"parameterUnit":"m.s-1","parameterCategory":2,"la1":30.2991,"la2":30.254,"lo1":-89.0895,"lo2":-89.0444,"dy":0.0017,"dx":0.0017,"nx":28,"ny":28,"refTime":"2025-06-15T09:00:00:Z","depth":"0","parameterNumber":2,"parameterNumberName":"U-component_of_CURRENTS"},"data":[0,0,0,0,0,0,0,0,0,0,0,0,0,0,0,0,0,0,0,0,0,0,0,0,0,0,0,0,0,0,0,0,0,0,0,0,0,0,0,0,0,0,0,0,0,0,0,0,0,0,0,0,0,0,0,0,0,0,0.3121,0.3121,0,0.3121,0.3121,0.3121,0.311,0.3109,0.3109,0.3109,0.3133,0.3134,0.3135,0,0,0,0,0,0,0,0,0,0,0,0,0,0.3178,0.3176,0.3121,0.3121,0.3121,0.3121,0.3121,0.3121,0.311,0.3109,0.3109,0.3109,0.3133,0.3134,0.3135,0,0,0,0,0,0,0,0,0,0,0,0,0,0.3162,0.3176,0.3121,0.3116,0.3116,0.3121,0.3121,0.3121,0.311,0.3109,0.3109,0.3109,0.3133,0.3134,0.3135,0.3149,0,0,0.3139,0.3139,0,0,0,0,0,0,0,0,0.3163,0.3159,0.3117,0.3117,0.3116,0.3116,0.315,0.3132,0.311,0.3111,0.3109,0.3109,0.3131,0.3132,0.3131,0.315,0.3151,0.3139,0.314,0.314,0.3141,0,0,0,0,0,0,0,0.3164,0.316,0.312,0.3117,0.3117,0.3137,0.3134,0.3146,0.3122,0.3111,0.311,0.3112,0.313,0.313,0.3131,0.3151,0.3139,0.314,0.3141,0.3141,0.3263,0.3265,0,0,0,0,0,0,0.3162,0.316,0.312,0.312,0.314,0.3136,0.3133,0.3115,0.3121,0.3122,0.3112,0.3112,0.3128,0.313,0.3132,0.3205,0.314,0.3141,0.3142,0.326,0.3263,0.3266,0,0,0,0,0,0,0.3163,0.3158,0.312,0.3143,0.3139,0.3135,0.3116,0.3116,0.3118,0.3122,0.3123,0.3116,0.3127,0.313,0.3149,0.3203,0.3142,0.3143,0.3257,0.3261,0.3265,0.3313,0,0,0,0,0,0,0.3164,0.3158,0.315,0.3141,0.3138,0.3129,0.3117,0.3116,0.312,0.3119,0.3126,0.3128,0.3127,0.3147,0.3151,0.3204,0.3144,0.3254,0.3259,0.3263,0.3309,0.3318,0.3327,0,0,0,0,0,0.3166,0.3157,0.3149,0.3145,0.3124,0.313,0.313,0.3126,0.3121,0.3126,0.313,0.3128,0.3181,0.3149,0.3153,0.3208,0.3252,0.3258,0.3263,0.3305,0.3317,0.3326,0,0,0,0,0,0,0.3186,0.3155,0.3146,0.3129,0.3133,0.3128,0.3134,0.3131,0.3137,0.3139,0.3138,0.314,0.3188,0.3188,0.3154,0.3261,0.3225,0.3232,0.3256,0.3267,0.3276,0.3299,0.3145,0,0,0,0,0,0.3184,0.3166,0.3152,0.3144,0.3143,0.3139,0.3142,0.3141,0.3144,0.3146,0.3149,0.3172,0.3214,0.3228,0.3254,0.3294,0.3333,0.3341,0.335,0.3357,0.3382,0.3495,0.3517,0.3284,0.3284,0.3284,0,0,0.3194,0.3174,0.3166,0.3148,0.3147,0.3159,0.314,0.3148,0.3173,0.315,0.3179,0.3197,0.3232,0.3286,0.3309,0.329,0.3441,0.3365,0.337,0.3391,0.3503,0.3526,0.3546,0.3288,0.3287,0.3287,0,0,0.3212,0.3183,0.3179,0.3178,0.3176,0.3178,0.3181,0.3178,0.3191,0.3211,0.3228,0.3275,0.3298,0.3355,0.3385,0.3461,0.3485,0.3474,0.3535,0.3645,0.3665,0.3683,0.3743,0.3767,0.3478,0.3478,0.3478,0,0.3231,0.3209,0.3186,0.3188,0.3197,0.3188,0.3205,0.3222,0.323,0.3266,0.3227,0.3334,0.3345,0.3467,0.349,0.3485,0.3532,0.3484,0.3657,0.3676,0.3694,0.3751,0.3777,0.3481,0.348,0.348,0.348,0,0.3245,0.3234,0.3236,0.3231,0.3244,0.3253,0.3272,0.3297,0.3301,0.3328,0.3421,0.344,0.3516,0.3532,0.3524,0.3677,0.3663,0.3653,0.3626,0.372,0.3774,0.38,0.3485,0.3484,0.3483,0.3482,0,0,0.3255,0.3247,0.3246,0.3252,0.3262,0.3274,0.3333,0.3391,0.3457,0.3471,0.3568,0.3632,0.3655,0.3693,0.3714,0.3793,0.3935,0.3774,0.3779,0.3827,0.4156,0.4036,0.4052,0.3959,0.3964,0.3968,0.4135,0,0.3272,0.328,0.3281,0.331,0.3312,0.3342,0.3407,0.3469,0.3516,0.3605,0.367,0.376,0.3718,0.3766,0.3846,0.3928,0.4008,0.3889,0.4064,0.4069,0.3947,0.408,0.3849,0.397,0.416,0.4164,0.4167,0,0.3266,0.3274,0.3295,0.3345,0.3356,0.3388,0.3494,0.3559,0.3696,0.3739,0.3844,0.3892,0.4034,0.3967,0.4166,0.4093,0.4136,0.4174,0.4182,0.4076,0.3998,0.3913,0.4009,0.394,0.4206,0.4203,0.42,0,0.3247,0.3279,0.3295,0.3303,0.3367,0.3411,0.3474,0.36,0.3689,0.3844,0.3923,0.4072,0.4163,0.4262,0.432,0.4272,0.4513,0.4458,0.4391,0.4381,0.4223,0.419,0.4269,0.4609,0.4609,0.4609,0.4608,0,0.3231,0.324,0.3285,0.3287,0.3355,0.3413,0.3522,0.361,0.3771,0.3898,0.4001,0.4118,0.4245,0.4375,0.4406,0.4481,0.4595,0.4441,0.4442,0.4228,0.4195,0.4155,0.4113,0.4615,0.4613,0.4612,0.4611,0,0.3177,0.3202,0.3227,0.3302,0.333,0.3384,0.3529,0.3626,0.3779,0.3951,0.4014,0.4207,0.4364,0.4463,0.463,0.4588,0.4539,0.4658,0.4368,0.433,0.4146,0.4113,0.4048,0.3945,0.4621,0.4619,0.4618,0,0.3139,0.3141,0.3218,0.3249,0.3275,0.3363,0.3441,0.3603,0.3715,0.3991,0.4079,0.4286,0.4387,0.4571,0.454,0.4591,0.4503,0.4411,0.427,0.4143,0.411,0.3953,0.3861,0.408,0.4075,0.407,0.4066,0,0.3078,0.3112,0.3146,0.3212,0.3274,0.3348,0.3471,0.355,0.3769,0.3904,0.4083,0.4187,0.4339,0.4279,0.4342,0.4333,0.418,0.4314,0.4289,0.3792,0.3526,0.3421,0.3942,0.4025,0.4029,0.4032,0.4035,0.4036,0.304,0.3062,0.3122,0.3177,0.3246,0.331,0.3329,0.3466,0.3597,0.3737,0.3937,0.3977,0.4047,0.4068,0.4045,0.3872,0.3887,0.3754,0.3757,0.3636,0.3429,0.3832,0.3841,0.3844,0.3846,0.3849,0.3851,0,0.2986,0.303,0.3085,0.3142,0.3164,0.3232,0.3328,0.331,0.3364,0.3501,0.3583,0.3601,0.3555,0.3592,0.3494,0.3357,0.3189,0.3291,0.3047,0.3012,0.3478,0.3345,0.3117,0.3117,0.3117,0.3117,0.3117,0.3117,0.2963,0.2992,0.3024,0.3032,0.306,0.3021,0.3025,0.3008,0.3044,0.3007,0.2982,0.306,0.3259,0.3261,0.3122,0.3033,0.2859,0.2664,0.276,0.3117,0.316,0.3202,0.3071,0.2789,0.2789,0.2123,0.2119,0.2115]},{"header":{"parameterUnit":"m.s-1","parameterCategory":2,"la1":30.2991,"la2":30.254,"lo1":-89.0895,"lo2":-89.0444,"dy":0.0017,"dx":0.0017,"nx":28,"ny":28,"refTime":"2025-06-15T09:00:00:Z","depth":"0","parameterNumber":3,"parameterNumberName":"V-component_of_CURRENTS"},"data":[0,0,0,0,0,0,0,0,0,0,0,0,0,0,0,0,0,0,0,0,0,0,0,0,0,0,0,0,0,0,0,0,0,0,0,0,0,0,0,0,0,0,0,0,0,0,0,0,0,0,0,0,0,0,0,0,0,0,0.0285,0.0285,0,0.0234,0.0234,0.0233,0.0194,0.0194,0.0194,0.0193,0.013,0.0128,0.0127,0,0,0,0,0,0,0,0,0,0,0,0,0,0.029,0.029,0.0285,0.0285,0.0284,0.0234,0.0234,0.0233,0.0194,0.0194,0.0193,0.0193,0.013,0.0128,0.0126,0,0,0,0,0,0,0,0,0,0,0,0,0,0.0267,0.029,0.0285,0.026,0.0258,0.0235,0.0234,0.0232,0.0194,0.0194,0.0193,0.0193,0.0131,0.0128,0.0126,0.0118,0,0,0.0119,0.0118,0,0,0,0,0,0,0,0,0.0268,0.0267,0.0264,0.0262,0.0259,0.0222,0.0212,0.0194,0.0194,0.0216,0.0193,0.0193,0.0161,0.0156,0.0145,0.0115,0.0113,0.0119,0.0118,0.0117,0.0116,0,0,0,0,0,0,0,0.027,0.0268,0.0263,0.0264,0.0261,0.0231,0.0228,0.0208,0.0189,0.0214,0.0212,0.0209,0.0159,0.0147,0.0143,0.0112,0.0119,0.0117,0.0116,0.0115,0.0105,0.0107,0,0,0,0,0,0,0.0283,0.027,0.0265,0.0262,0.0265,0.0232,0.0228,0.0233,0.019,0.0183,0.0209,0.0207,0.0151,0.0146,0.014,0.0163,0.0117,0.0115,0.0113,0.0104,0.0106,0.0107,0,0,0,0,0,0,0.0284,0.0284,0.0267,0.0266,0.0262,0.0233,0.0238,0.0232,0.0224,0.0186,0.0179,0.0208,0.015,0.0144,0.013,0.0159,0.0114,0.0112,0.0103,0.0105,0.0106,0.0186,0,0,0,0,0,0,0.0284,0.0284,0.029,0.0267,0.0262,0.0264,0.0238,0.0231,0.0223,0.022,0.0183,0.0176,0.015,0.0133,0.0128,0.0155,0.011,0.0102,0.0104,0.0106,0.0182,0.019,0.0197,0,0,0,0,0,0.0285,0.0298,0.0291,0.029,0.0272,0.0265,0.026,0.0236,0.0223,0.0226,0.02,0.0178,0.0143,0.0132,0.0125,0.0152,0.0101,0.0103,0.0106,0.0178,0.0188,0.0197,0,0,0,0,0,0,0.0301,0.0294,0.0286,0.0296,0.0286,0.0259,0.0258,0.0243,0.0224,0.0219,0.0183,0.0175,0.0176,0.0152,0.0141,0.0157,0.0122,0.0123,0.0179,0.0188,0.0196,0.0225,0.0108,0,0,0,0,0,0.0309,0.0316,0.0304,0.031,0.0309,0.0284,0.0277,0.0264,0.0245,0.0236,0.0211,0.019,0.0181,0.0174,0.0156,0.016,0.0144,0.0175,0.0183,0.019,0.0209,0.0221,0.0232,0.0115,0.0115,0.0115,0,0,0.0315,0.0312,0.0315,0.0314,0.0302,0.0311,0.0279,0.0276,0.0288,0.0232,0.0237,0.0212,0.0187,0.0193,0.0192,0.0176,0.0209,0.0193,0.0199,0.0215,0.0225,0.0236,0.0247,0.0117,0.0116,0.0116,0,0,0.0339,0.0332,0.035,0.0348,0.0342,0.0329,0.0334,0.0316,0.0312,0.0309,0.0282,0.0279,0.0249,0.025,0.0243,0.0283,0.0247,0.0275,0.0339,0.035,0.036,0.0368,0.0339,0.0345,0.0281,0.0281,0.0281,0,0.0349,0.0372,0.0353,0.0373,0.0379,0.0344,0.037,0.0362,0.0342,0.0358,0.0321,0.0317,0.0284,0.0321,0.0328,0.0304,0.0288,0.0305,0.0361,0.0369,0.0377,0.0345,0.035,0.0285,0.0285,0.0284,0.0284,0,0.0391,0.0409,0.0419,0.0436,0.0438,0.0452,0.0444,0.0452,0.0437,0.0434,0.0458,0.0416,0.0425,0.0409,0.0373,0.0422,0.0384,0.0368,0.0341,0.0394,0.0356,0.036,0.0291,0.029,0.0288,0.0287,0,0,0.0423,0.0447,0.0452,0.0479,0.0476,0.049,0.0515,0.0543,0.0588,0.0555,0.0617,0.0579,0.0566,0.0559,0.0524,0.0521,0.0536,0.0469,0.0467,0.0444,0.0534,0.0494,0.0494,0.053,0.0532,0.0534,0.0477,0,0.0467,0.0524,0.0521,0.0574,0.0605,0.0594,0.0634,0.0653,0.0656,0.0704,0.0679,0.0711,0.0622,0.0638,0.0622,0.0575,0.0554,0.0551,0.0482,0.048,0.0443,0.0501,0.0496,0.0445,0.048,0.0481,0.0481,0,0.0515,0.055,0.0612,0.0672,0.0688,0.0714,0.0784,0.0819,0.0867,0.0876,0.0894,0.0873,0.0879,0.0793,0.0731,0.0733,0.0641,0.058,0.0576,0.0522,0.045,0.0402,0.045,0.0343,0.0487,0.0486,0.0486,0,0.056,0.0618,0.0674,0.0689,0.0745,0.0785,0.0826,0.0877,0.0946,0.1,0.1057,0.1034,0.1055,0.0953,0.0816,0.0781,0.0736,0.0674,0.0542,0.0536,0.0511,0.0501,0.0458,0.0625,0.0625,0.0625,0.0625,0,0.0613,0.0659,0.0704,0.0737,0.0834,0.0852,0.0964,0.1003,0.1094,0.1213,0.1163,0.1245,0.1099,0.1051,0.0888,0.0742,0.0791,0.0571,0.0538,0.0534,0.0527,0.0415,0.0318,0.0623,0.0623,0.0624,0.0624,0,0.0652,0.0675,0.0752,0.0825,0.0855,0.0932,0.1058,0.1154,0.122,0.1377,0.1411,0.1422,0.1358,0.1184,0.1028,0.0854,0.0622,0.0628,0.0613,0.0579,0.0337,0.0244,0.0139,0.0083,0.0473,0.0472,0.0471,0,0.0678,0.0718,0.0816,0.088,0.0915,0.1024,0.112,0.121,0.1327,0.1497,0.1597,0.1583,0.1596,0.1338,0.1033,0.0748,0.0606,0.0543,0.0474,0.0346,0.0218,0.0161,0.0119,0.0451,0.045,0.045,0.0449,0,0.0732,0.0763,0.083,0.0961,0.1061,0.1188,0.1332,0.1441,0.1588,0.1727,0.1897,0.192,0.1674,0.1405,0.1005,0.079,0.0456,0.0516,0.041,0.0228,0.014,0.0064,0.0433,0.0442,0.0443,0.0443,0.0444,0.0444,0.0775,0.0837,0.093,0.1058,0.118,0.135,0.1476,0.1645,0.1851,0.2068,0.2088,0.2138,0.1751,0.1206,0.0914,0.0401,0.0381,0.0238,0.0141,0.0101,0.0044,0.0382,0.034,0.034,0.034,0.034,0.034,0,0.0833,0.0909,0.1029,0.119,0.1339,0.1394,0.1623,0.1765,0.2014,0.217,0.2297,0.2133,0.1649,0.1154,0.0464,0.0114,-0.0013,-0.0069,-0.0138,-0.0161,0.0171,0.017,0.0061,0.0061,0.0061,0.0061,0.0061,0.0061,0.087,0.0985,0.1051,0.1294,0.1417,0.163,0.1766,0.1971,0.2118,0.2299,0.2322,0.2319,0.1979,0.0776,0.002,-0.0165,-0.0373,-0.0465,-0.0547,-0.0317,-0.0294,-0.0273,-0.0291,-0.0495,-0.0496,-0.081,-0.0814,-0.0816]}],[{"header":{"parameterUnit":"m.s-1","parameterCategory":2,"la1":30.2991,"la2":30.254,"lo1":-89.0895,"lo2":-89.0444,"dy":0.0017,"dx":0.0017,"nx":28,"ny":28,"refTime":"2025-06-15T09:00:00:Z","depth":"2","parameterNumber":2,"parameterNumberName":"U-component_of_CURRENTS"},"data":[0,0,0,0,0,0,0,0,0,0,0,0,0,0,0,0,0,0,0,0,0,0,0,0,0,0,0,0,0,0,0,0,0,0,0,0,0,0,0,0,0,0,0,0,0,0,0,0,0,0,0,0,0,0,0,0,0,0,0.2833,0.2833,0,0.2842,0.2842,0.2842,0.2843,0.2843,0.2843,0.2844,0.2872,0.2873,0.2874,0,0,0,0,0,0,0,0,0,0,0,0,0,0.2827,0.2827,0.2833,0.2833,0.2833,0.2842,0.2842,0.2842,0.2843,0.2843,0.2843,0.2844,0.2872,0.2873,0.2874,0,0,0,0,0,0,0,0,0,0,0,0,0,0.2831,0.2827,0.2833,0.2836,0.2837,0.2842,0.2842,0.2842,0.2843,0.2843,0.2843,0.2844,0.2872,0.2873,0.2874,0.2879,0,0,0.2877,0.2878,0,0,0,0,0,0,0,0,0.2831,0.2831,0.2835,0.2836,0.2837,0.2843,0.2851,0.2856,0.2843,0.2839,0.2844,0.2844,0.2865,0.2867,0.2866,0.288,0.2881,0.2877,0.2878,0.2878,0.2879,0,0,0,0,0,0,0,0.2831,0.2831,0.2835,0.2836,0.2836,0.2841,0.2842,0.2852,0.2851,0.284,0.284,0.2844,0.2866,0.2865,0.2867,0.2882,0.2877,0.2878,0.2879,0.2879,0.2979,0.2981,0,0,0,0,0,0,0.2832,0.283,0.2835,0.2835,0.2836,0.2841,0.2842,0.284,0.285,0.2852,0.2843,0.2844,0.2863,0.2865,0.2868,0.2932,0.2878,0.2879,0.288,0.2977,0.2979,0.2981,0,0,0,0,0,0,0.2832,0.2832,0.2834,0.2835,0.2836,0.2841,0.2839,0.284,0.285,0.2853,0.2855,0.2855,0.2863,0.2866,0.2886,0.2931,0.288,0.2881,0.2974,0.2978,0.298,0.3024,0,0,0,0,0,0,0.2831,0.2832,0.2837,0.2835,0.2836,0.2848,0.2839,0.284,0.2852,0.2853,0.2864,0.2865,0.2863,0.2885,0.2887,0.2932,0.2882,0.2972,0.2976,0.2979,0.302,0.3028,0.3035,0,0,0,0,0,0.2831,0.2835,0.2837,0.2838,0.284,0.2849,0.285,0.2853,0.2853,0.2862,0.2867,0.2866,0.2912,0.2886,0.2889,0.2935,0.297,0.2975,0.2979,0.3017,0.3027,0.3035,0,0,0,0,0,0,0.284,0.2836,0.2837,0.2841,0.2851,0.285,0.2859,0.2861,0.2871,0.2876,0.2874,0.2877,0.2922,0.2919,0.2891,0.2978,0.2948,0.2953,0.2976,0.2985,0.2993,0.3027,0.2883,0,0,0,0,0,0.2844,0.2843,0.2846,0.2853,0.2857,0.2861,0.2867,0.2871,0.2877,0.2882,0.2889,0.2908,0.2942,0.2952,0.2975,0.3006,0.3039,0.3045,0.3052,0.3058,0.3091,0.3174,0.3193,0.2996,0.2996,0.2996,0,0,0.2846,0.2849,0.2846,0.2855,0.2861,0.2877,0.2865,0.288,0.2901,0.2885,0.2916,0.2934,0.2957,0.3001,0.3022,0.3002,0.3128,0.3064,0.3069,0.3099,0.3181,0.32,0.3217,0.2999,0.2999,0.2998,0,0,0.2858,0.2858,0.2863,0.2874,0.289,0.2895,0.2903,0.2911,0.2924,0.2948,0.2961,0.3005,0.3025,0.3066,0.3087,0.3151,0.3169,0.316,0.322,0.33,0.3317,0.3332,0.3381,0.3401,0.3158,0.3158,0.3158,0,0.2863,0.2872,0.2869,0.2887,0.2899,0.2907,0.2924,0.2943,0.2959,0.299,0.2966,0.3063,0.3067,0.3163,0.3183,0.3172,0.3209,0.3176,0.331,0.3326,0.3341,0.3388,0.3409,0.3161,0.3161,0.316,0.316,0,0.2882,0.2895,0.2903,0.2925,0.2938,0.2956,0.2978,0.3008,0.3021,0.3048,0.3135,0.3153,0.322,0.3229,0.322,0.3343,0.3331,0.3311,0.3285,0.3364,0.3408,0.3429,0.3165,0.3164,0.3163,0.3162,0,0,0.2868,0.2907,0.2908,0.2925,0.2959,0.2967,0.3022,0.3077,0.3138,0.3167,0.3256,0.3312,0.3344,0.3373,0.3386,0.3448,0.3563,0.3426,0.3429,0.3472,0.3731,0.3587,0.3595,0.3567,0.3571,0.3575,0.3712,0,0.2883,0.2914,0.2934,0.2969,0.2983,0.302,0.3076,0.3133,0.3185,0.3275,0.3339,0.3427,0.3394,0.3443,0.3503,0.3556,0.3625,0.3527,0.3653,0.3657,0.3516,0.3617,0.332,0.3406,0.3732,0.3736,0.3738,0,0.2889,0.2908,0.2938,0.2995,0.3008,0.3044,0.3138,0.3188,0.3324,0.338,0.3489,0.3543,0.3664,0.3615,0.3764,0.3704,0.3737,0.3762,0.3767,0.364,0.3553,0.3385,0.3432,0.3774,0.3771,0.3768,0.3766,0,0.2858,0.2908,0.293,0.2945,0.3016,0.3058,0.3109,0.3228,0.3313,0.3468,0.356,0.3689,0.3776,0.385,0.3887,0.3849,0.4033,0.398,0.3889,0.3878,0.3655,0.3616,0.4112,0.4111,0.4111,0.4111,0.411,0,0.2849,0.2863,0.2924,0.2931,0.299,0.3047,0.3148,0.3228,0.3399,0.3509,0.3621,0.3732,0.3845,0.3944,0.3959,0.3984,0.4095,0.3937,0.3921,0.3656,0.3618,0.3958,0.3938,0.4116,0.4115,0.4114,0.4113,0,0.2799,0.2837,0.2866,0.2942,0.2972,0.3011,0.3165,0.3263,0.3414,0.3568,0.3634,0.382,0.3921,0.4005,0.4124,0.4066,0.4107,0.4089,0.3752,0.3693,0.3882,0.3863,0.4016,0.4012,0.4009,0.4007,0.4005,0,0.2768,0.2782,0.2853,0.2885,0.2921,0.3003,0.3087,0.3253,0.3347,0.359,0.3655,0.384,0.3897,0.4016,0.3978,0.3995,0.408,0.3709,0.3576,0.3912,0.3882,0.3868,0.3854,0.3301,0.3293,0.3287,0.3282,0,0.2713,0.275,0.2773,0.2846,0.2919,0.299,0.3098,0.3179,0.3362,0.3476,0.3603,0.3684,0.3799,0.3665,0.3691,0.3651,0.3672,0.3577,0.4067,0.3349,0.3243,0.3211,0.322,0.3226,0.3231,0.3235,0.3238,0.3241,0.267,0.269,0.2746,0.2799,0.288,0.2937,0.2946,0.3051,0.3144,0.3231,0.3397,0.3382,0.3436,0.33,0.3205,0.3132,0.3383,0.3219,0.3237,0.3263,0.3133,0.3025,0.2943,0.2947,0.295,0.2953,0.2956,0,0.2631,0.2667,0.2707,0.2754,0.2767,0.2862,0.2925,0.2877,0.2867,0.2975,0.301,0.2777,0.27,0.2759,0.257,0.2557,0.2523,0.2439,0.2379,0.2439,0.2491,0.2319,0.1915,0.1911,0.1908,0.1904,0,0,0.2614,0.2623,0.2634,0.2603,0.2648,0.2621,0.2612,0.255,0.2542,0.2455,0.2415,0.2588,0.2689,0.2271,0.2221,0.2038,0.2214,0.1948,0.2794,0.2785,0.2832,0.2961,0.2767,0,0,0,0,0]},{"header":{"parameterUnit":"m.s-1","parameterCategory":2,"la1":30.2991,"la2":30.254,"lo1":-89.0895,"lo2":-89.0444,"dy":0.0017,"dx":0.0017,"nx":28,"ny":28,"refTime":"2025-06-15T09:00:00:Z","depth":"2","parameterNumber":3,"parameterNumberName":"V-component_of_CURRENTS"},"data":[0,0,0,0,0,0,0,0,0,0,0,0,0,0,0,0,0,0,0,0,0,0,0,0,0,0,0,0,0,0,0,0,0,0,0,0,0,0,0,0,0,0,0,0,0,0,0,0,0,0,0,0,0,0,0,0,0,0,0.0157,0.0157,0,0.0111,0.011,0.011,0.0075,0.0075,0.0075,0.0075,0.0012,0.001,0.0009,0,0,0,0,0,0,0,0,0,0,0,0,0,0.0149,0.0149,0.0158,0.0157,0.0157,0.0111,0.011,0.0109,0.0075,0.0075,0.0075,0.0075,0.0012,0.001,0.0009,0,0,0,0,0,0,0,0,0,0,0,0,0,0.0131,0.015,0.0158,0.0135,0.0133,0.0111,0.011,0.0109,0.0075,0.0075,0.0075,0.0075,0.0013,0.0011,0.0008,-0.0002,0,0,0.0001,0.0,0,0,0,0,0,0,0,0,0.0132,0.0131,0.0139,0.0137,0.0134,0.01,0.0084,0.0072,0.0075,0.0096,0.0075,0.0075,0.0041,0.0036,0.0026,-0.0005,-0.0007,0.0001,-0.0,-0.0001,-0.0002,0,0,0,0,0,0,0,0.0134,0.0133,0.0137,0.0139,0.0136,0.0104,0.0102,0.0081,0.0068,0.0094,0.0092,0.0089,0.0039,0.0028,0.0024,-0.0008,0.0001,-0.0001,-0.0002,-0.0003,-0.0026,-0.0025,0,0,0,0,0,0,0.0147,0.0134,0.0139,0.0136,0.0134,0.0105,0.0102,0.011,0.0069,0.0063,0.0089,0.0088,0.0032,0.0027,0.0022,0.0037,-0.0001,-0.0004,-0.0005,-0.0027,-0.0026,-0.0025,0,0,0,0,0,0,0.0147,0.0148,0.0141,0.0135,0.0132,0.0106,0.0114,0.0109,0.0103,0.0066,0.0059,0.0089,0.0032,0.0025,0.001,0.0033,-0.0005,-0.0007,-0.0028,-0.0027,-0.0026,0.0048,0,0,0,0,0,0,0.0147,0.0149,0.0156,0.0136,0.0133,0.0138,0.0115,0.0109,0.0102,0.01,0.0064,0.0057,0.0031,0.0014,0.0008,0.0029,-0.0009,-0.0029,-0.0027,-0.0026,0.0044,0.0051,0.0057,0,0,0,0,0,0.0147,0.0161,0.0157,0.0157,0.0145,0.0139,0.0134,0.0113,0.0103,0.0105,0.008,0.0059,0.0019,0.0012,0.0005,0.0026,-0.003,-0.0028,-0.0026,0.0041,0.005,0.0057,0,0,0,0,0,0,0.0158,0.0158,0.0154,0.0166,0.0158,0.0134,0.0132,0.012,0.0101,0.0098,0.0063,0.0055,0.0052,0.0027,0.0021,0.0024,-0.0006,-0.0006,0.0047,0.0055,0.0061,0.0084,-0.0011,0,0,0,0,0,0.0166,0.0177,0.017,0.0178,0.0178,0.0157,0.015,0.014,0.0121,0.0113,0.009,0.0067,0.0053,0.0045,0.0025,0.0023,0.0002,0.0034,0.004,0.0046,0.006,0.0052,0.006,-0.0019,-0.0019,-0.0019,0,0,0.0169,0.0173,0.0176,0.0181,0.0171,0.018,0.0152,0.015,0.0159,0.0109,0.0111,0.0086,0.0057,0.0057,0.0055,0.004,0.0054,0.0048,0.0053,0.0065,0.0055,0.0063,0.007,-0.0018,-0.0018,-0.0018,0,0,0.0188,0.0189,0.0207,0.0208,0.0206,0.0195,0.02,0.0186,0.0181,0.0177,0.015,0.0143,0.0113,0.0105,0.0095,0.0125,0.0088,0.0118,0.017,0.0162,0.0169,0.0175,0.0145,0.0147,0.0122,0.0122,0.0122,0,0.0193,0.0221,0.0209,0.0229,0.0236,0.0209,0.0232,0.0223,0.0206,0.0215,0.0188,0.0173,0.014,0.0159,0.0164,0.0142,0.0122,0.0143,0.0172,0.0177,0.0182,0.015,0.0151,0.0126,0.0126,0.0125,0.0125,0,0.0229,0.0251,0.0261,0.0283,0.0285,0.0299,0.0292,0.0298,0.0286,0.0281,0.0294,0.0254,0.0253,0.0237,0.0205,0.0231,0.0199,0.0181,0.0155,0.0194,0.0157,0.0158,0.0131,0.013,0.0129,0.0128,0,0,0.0249,0.0283,0.0287,0.0313,0.0319,0.0329,0.0349,0.0369,0.0403,0.0375,0.042,0.038,0.0367,0.0356,0.0323,0.0307,0.0306,0.026,0.0258,0.0235,0.0274,0.0232,0.0228,0.0292,0.0293,0.0293,0.023,0,0.0285,0.0342,0.0344,0.0392,0.0422,0.0414,0.0445,0.0456,0.0458,0.0493,0.0464,0.0487,0.0411,0.0425,0.0396,0.0337,0.0313,0.0323,0.0235,0.0232,0.0195,0.023,0.0248,0.0193,0.0231,0.0231,0.0231,0,0.0329,0.0364,0.0421,0.0474,0.0487,0.0511,0.0565,0.0589,0.0622,0.0632,0.0641,0.0619,0.0605,0.0539,0.045,0.046,0.0376,0.0315,0.0311,0.0251,0.0193,0.0162,0.0192,0.0231,0.0231,0.0231,0.0231,0,0.0366,0.0421,0.0472,0.0487,0.0537,0.057,0.0599,0.0637,0.0699,0.0733,0.0787,0.0742,0.0753,0.0644,0.0506,0.0484,0.0401,0.0355,0.0236,0.0231,0.022,0.0213,0.0298,0.0299,0.0299,0.0299,0.0299,0,0.0415,0.0456,0.0499,0.053,0.0611,0.0624,0.0717,0.0745,0.0828,0.0922,0.0872,0.0935,0.0782,0.0714,0.0559,0.0402,0.044,0.0256,0.0222,0.0243,0.0239,0.0252,0.0247,0.0296,0.0297,0.0297,0.0298,0,0.0451,0.0475,0.0543,0.0606,0.0633,0.0693,0.081,0.0896,0.0949,0.1076,0.1105,0.1095,0.0995,0.0822,0.0648,0.0489,0.0332,0.0265,0.0286,0.0257,0.0146,0.0146,0.0125,0.0123,0.0121,0.012,0.0119,0,0.0475,0.0515,0.0599,0.0659,0.0692,0.0786,0.0874,0.0955,0.1055,0.1175,0.1253,0.1211,0.1185,0.0906,0.0634,0.0365,0.0328,0.0189,0.0148,0.0164,0.0134,0.0136,0.0138,0.0152,0.0152,0.0151,0.0151,0,0.0526,0.0554,0.0611,0.0736,0.0831,0.0945,0.1068,0.1173,0.1282,0.1383,0.1491,0.1482,0.1231,0.0968,0.0597,0.0406,0.0229,0.0167,0.0207,0.0192,0.0185,0.0157,0.0159,0.0146,0.0146,0.0147,0.0147,0.0147,0.0563,0.062,0.0706,0.0825,0.0944,0.11,0.1209,0.1345,0.1508,0.1656,0.1633,0.161,0.1314,0.084,0.0523,0.019,0.0208,0.0068,0.0073,0.0077,0.009,0.0081,0.0023,0.0023,0.0023,0.0023,0.0023,0,0.0623,0.0693,0.0801,0.0946,0.1082,0.1143,0.1343,0.1446,0.1628,0.1731,0.1789,0.1496,0.1204,0.0864,0.0382,0.0082,0.0063,-0.0032,0.0018,0.0026,0.0032,0.0044,-0.0036,-0.0037,-0.0038,-0.0039,0,0,0.0661,0.0763,0.082,0.1033,0.1153,0.1344,0.1465,0.1611,0.1709,0.1789,0.1775,0.1714,0.1308,0.0937,0.0539,0.026,0.0205,0.019,0.027,0.0385,0.0395,0.0122,0.0153,0,0,0,0,0]}],[{"header":{"parameterUnit":"m.s-1","parameterCategory":2,"la1":30.2991,"la2":30.254,"lo1":-89.0895,"lo2":-89.0444,"dy":0.0017,"dx":0.0017,"nx":28,"ny":28,"refTime":"2025-06-15T09:00:00:Z","depth":"4","parameterNumber":2,"parameterNumberName":"U-component_of_CURRENTS"},"data":[0,0,0,0,0,0,0,0,0,0,0,0,0,0,0,0,0,0,0,0,0,0,0,0,0,0,0,0,0,0,0,0,0,0,0,0,0,0,0,0,0,0,0,0,0,0,0,0,0,0,0,0,0,0,0,0,0,0,0.1812,0.1813,0,0.1871,0.1872,0.1872,0.1931,0.1932,0.1933,0.1934,0.1982,0.1982,0.1983,0,0,0,0,0,0,0,0,0,0,0,0,0,0.1716,0.1718,0.1812,0.1813,0.1814,0.1871,0.1872,0.1872,0.1931,0.1932,0.1933,0.1935,0.1982,0.1982,0.1983,0,0,0,0,0,0,0,0,0,0,0,0,0,0.1763,0.1718,0.1812,0.1851,0.1856,0.1871,0.1872,0.1873,0.1931,0.1932,0.1934,0.1935,0.1982,0.1982,0.1983,0.1957,0,0,0.1985,0.1985,0,0,0,0,0,0,0,0,0.176,0.1766,0.1845,0.1849,0.1854,0.1897,0.1856,0.1901,0.193,0.19,0.1934,0.1936,0.1953,0.1956,0.1961,0.1959,0.1961,0.1985,0.1985,0.1985,0.1985,0,0,0,0,0,0,0,0.1757,0.1764,0.1833,0.1846,0.1851,0.1855,0.1863,0.1864,0.1916,0.1903,0.1908,0.1917,0.1955,0.196,0.1963,0.1962,0.1985,0.1985,0.1985,0.1986,0.2058,0.2059,0,0,0,0,0,0,0.1754,0.1761,0.1831,0.1835,0.1812,0.1856,0.1865,0.188,0.1916,0.1924,0.1916,0.192,0.1959,0.1962,0.1964,0.2041,0.1985,0.1986,0.1986,0.2056,0.2058,0.206,0,0,0,0,0,0,0.1752,0.176,0.1829,0.1801,0.181,0.1857,0.1872,0.188,0.1927,0.1927,0.1934,0.1959,0.196,0.1964,0.2008,0.204,0.1986,0.1987,0.2055,0.2057,0.2059,0.2127,0,0,0,0,0,0,0.1749,0.1759,0.1787,0.1801,0.1812,0.1864,0.1871,0.1881,0.1929,0.1935,0.1965,0.1969,0.1961,0.2007,0.2008,0.204,0.1987,0.2052,0.2056,0.2058,0.2123,0.2132,0.2139,0,0,0,0,0,0.1745,0.1769,0.1788,0.1798,0.1843,0.1865,0.1871,0.1907,0.193,0.1953,0.1982,0.197,0.2027,0.2009,0.201,0.2042,0.2051,0.2055,0.2058,0.2119,0.213,0.2139,0,0,0,0,0,0,0.1736,0.1778,0.1799,0.1835,0.1863,0.1877,0.1907,0.1928,0.1968,0.1988,0.1988,0.1994,0.2043,0.2034,0.2014,0.2072,0.2037,0.2041,0.2083,0.2093,0.2101,0.21,0.1987,0,0,0,0,0,0.1748,0.1786,0.1813,0.1846,0.1864,0.1894,0.1916,0.1939,0.1967,0.1989,0.2011,0.2033,0.205,0.2068,0.2078,0.2108,0.2112,0.2131,0.2139,0.2146,0.2146,0.2204,0.2218,0.2072,0.2072,0.2072,0,0,0.1752,0.1783,0.1805,0.1849,0.1876,0.1905,0.1912,0.1956,0.1989,0.1984,0.2051,0.2063,0.2065,0.2104,0.2124,0.2107,0.2187,0.215,0.2156,0.2153,0.2209,0.2224,0.2236,0.2074,0.2074,0.2073,0,0,0.1765,0.1811,0.1843,0.1873,0.1924,0.194,0.1962,0.2001,0.2036,0.2086,0.2095,0.2131,0.2162,0.2169,0.2173,0.223,0.2227,0.2241,0.2283,0.234,0.2352,0.2364,0.2376,0.2387,0.2247,0.2247,0.2247,0,0.1773,0.1816,0.1854,0.189,0.1919,0.196,0.1991,0.2027,0.2079,0.2104,0.2121,0.2185,0.2187,0.2226,0.2249,0.2247,0.2273,0.2246,0.2351,0.2362,0.2372,0.2382,0.2394,0.225,0.225,0.225,0.2249,0,0.1794,0.1847,0.1868,0.1931,0.1965,0.2002,0.2048,0.2096,0.2143,0.2169,0.2238,0.2258,0.2294,0.2303,0.2294,0.2365,0.2357,0.2355,0.2327,0.2391,0.2397,0.2409,0.2256,0.2254,0.2253,0.2252,0,0,0.1764,0.1863,0.1877,0.1913,0.1993,0.2013,0.2083,0.2135,0.2178,0.2246,0.2305,0.2343,0.237,0.2377,0.2385,0.243,0.2514,0.2433,0.2435,0.2444,0.2629,0.2463,0.2459,0.2552,0.2554,0.2556,0.26,0,0.1773,0.184,0.189,0.1956,0.1992,0.2055,0.2105,0.2164,0.2224,0.2292,0.2339,0.2401,0.2396,0.2434,0.248,0.2509,0.255,0.2501,0.2565,0.2565,0.241,0.2468,0.2565,0.2608,0.261,0.2612,0.2614,0,0.1772,0.1822,0.1887,0.197,0.199,0.2037,0.2122,0.2176,0.2273,0.2325,0.2407,0.2454,0.2534,0.253,0.2622,0.2603,0.2624,0.2639,0.2641,0.2469,0.2421,0.2532,0.2634,0.2632,0.263,0.2629,0.2628,0,0.1719,0.1815,0.1867,0.1898,0.1996,0.2041,0.2097,0.2189,0.2238,0.2371,0.2436,0.2525,0.2604,0.2657,0.2695,0.2684,0.2786,0.2767,0.263,0.2617,0.2723,0.2711,0.2836,0.2836,0.2836,0.2836,0.2836,0,0.1693,0.174,0.1853,0.188,0.1933,0.2021,0.2084,0.2159,0.2271,0.2324,0.2464,0.2526,0.2654,0.2722,0.2731,0.2707,0.282,0.2638,0.2625,0.2748,0.2738,0.273,0.2717,0.2837,0.2837,0.2837,0.2836,0,0.1627,0.1707,0.1766,0.1876,0.1914,0.1955,0.2071,0.2106,0.2249,0.2339,0.2398,0.2564,0.2658,0.2738,0.282,0.274,0.2736,0.27,0.2813,0.2805,0.2516,0.2506,0.2539,0.2534,0.2529,0.2525,0.2522,0,0.1598,0.1626,0.1743,0.1767,0.1824,0.1901,0.1942,0.2081,0.2123,0.2325,0.2352,0.2523,0.261,0.2596,0.2686,0.2692,0.2667,0.2631,0.2575,0.2505,0.249,0.2488,0.2484,0.2515,0.2514,0.2513,0.2512,0,0.1527,0.1582,0.1618,0.1678,0.173,0.1772,0.1854,0.1872,0.2028,0.2185,0.2263,0.2327,0.2432,0.2491,0.2528,0.2522,0.2631,0.2583,0.2592,0.2539,0.2476,0.2466,0.2468,0.2496,0.2498,0.25,0.2501,0,0.1465,0.1464,0.1519,0.155,0.1616,0.1626,0.168,0.1738,0.181,0.2038,0.2051,0.2241,0.2399,0.2402,0.2422,0.242,0.2382,0.2285,0.2308,0.2327,0.2238,0.2126,0.2029,0,0,0,0,0,0.1388,0.1365,0.1384,0.1402,0.1464,0.1508,0.1609,0.1668,0.183,0.1832,0.1937,0.2024,0.2099,0.2192,0.2149,0.2314,0.2378,0.225,0.2275,0.2409,0.2427,0.2342,0,0,0,0,0,0,0.1326,0.1337,0.1335,0.1284,0.1276,0.1325,0.139,0.1492,0.1503,0.1687,0.1749,0.189,0.2002,0.2111,0.2111,0.2135,0.2103,0.2362,0.2356,0.2399,0.2415,0.243,0.2349,0,0,0,0,0]},{"header":{"parameterUnit":"m.s-1","parameterCategory":2,"la1":30.2991,"la2":30.254,"lo1":-89.0895,"lo2":-89.0444,"dy":0.0017,"dx":0.0017,"nx":28,"ny":28,"refTime":"2025-06-15T09:00:00:Z","depth":"4","parameterNumber":3,"parameterNumberName":"V-component_of_CURRENTS"},"data":[0,0,0,0,0,0,0,0,0,0,0,0,0,0,0,0,0,0,0,0,0,0,0,0,0,0,0,0,0,0,0,0,0,0,0,0,0,0,0,0,0,0,0,0,0,0,0,0,0,0,0,0,0,0,0,0,0,0,0.0075,0.0075,0,0.0043,0.0043,0.0042,0.0019,0.0019,0.0019,0.0019,-0.003,-0.0031,-0.0032,0,0,0,0,0,0,0,0,0,0,0,0,0,0.0066,0.0067,0.0075,0.0075,0.0075,0.0043,0.0043,0.0042,0.0019,0.0019,0.0019,0.0019,-0.003,-0.0031,-0.0032,0,0,0,0,0,0,0,0,0,0,0,0,0,0.0055,0.0067,0.0075,0.006,0.0058,0.0043,0.0043,0.0042,0.0019,0.0019,0.0019,0.0019,-0.0029,-0.0031,-0.0033,-0.004,0,0,-0.0038,-0.0039,0,0,0,0,0,0,0,0,0.0056,0.0055,0.0063,0.0061,0.0059,0.0036,0.0022,0.0014,0.0019,0.0033,0.0019,0.0019,-0.0009,-0.0012,-0.0019,-0.0043,-0.0045,-0.0038,-0.0039,-0.004,-0.0041,0,0,0,0,0,0,0,0.0057,0.0056,0.0062,0.0062,0.006,0.0038,0.0036,0.002,0.0012,0.0032,0.003,0.0028,-0.001,-0.0017,-0.002,-0.0045,-0.0038,-0.004,-0.0041,-0.0042,-0.0069,-0.0068,0,0,0,0,0,0,0.0065,0.0057,0.0063,0.0061,0.0058,0.0038,0.0037,0.0043,0.0013,0.0009,0.0028,0.0027,-0.0014,-0.0018,-0.0022,-0.0016,-0.004,-0.0042,-0.0043,-0.0069,-0.0068,-0.0068,0,0,0,0,0,0,0.0065,0.0067,0.0064,0.0058,0.0057,0.0039,0.0046,0.0042,0.0038,0.0011,0.0006,0.0029,-0.0014,-0.002,-0.0032,-0.0019,-0.0043,-0.0044,-0.0069,-0.0069,-0.0068,-0.0015,0,0,0,0,0,0,0.0066,0.0067,0.0073,0.0059,0.0057,0.0061,0.0046,0.0042,0.0037,0.0036,0.0009,0.0004,-0.0015,-0.003,-0.0034,-0.0022,-0.0046,-0.007,-0.0069,-0.0068,-0.0018,-0.0013,-0.0009,0,0,0,0,0,0.0065,0.0075,0.0074,0.0074,0.0067,0.0062,0.0059,0.0044,0.0038,0.0039,0.0021,0.0005,-0.0028,-0.0031,-0.0036,-0.0024,-0.007,-0.0069,-0.0069,-0.0019,-0.0014,-0.0009,0,0,0,0,0,0,0.007,0.0073,0.0072,0.0081,0.0076,0.0059,0.0057,0.0049,0.0035,0.0033,0.0007,0.0001,-0.0004,-0.0023,-0.0025,-0.003,-0.0051,-0.0051,-0.0012,-0.0007,-0.0003,0.0003,-0.0047,0,0,0,0,0,0.0077,0.0086,0.0082,0.0088,0.0088,0.0074,0.007,0.0063,0.0049,0.0043,0.0026,0.0007,-0.0006,-0.0013,-0.0029,-0.0033,-0.0059,-0.0029,-0.0025,-0.0021,-0.0021,-0.0045,-0.0042,-0.0065,-0.0065,-0.0065,0,0,0.0078,0.0082,0.0085,0.009,0.0083,0.009,0.0071,0.0069,0.0076,0.004,0.004,0.002,-0.0004,-0.0008,-0.0011,-0.0021,-0.0028,-0.002,-0.0017,-0.0018,-0.0044,-0.0041,-0.0039,-0.0065,-0.0065,-0.0065,0,0,0.0088,0.0092,0.0104,0.0106,0.0105,0.0099,0.0103,0.0093,0.0091,0.0087,0.0066,0.0053,0.0032,0.002,0.001,0.0026,-0.0006,0.0023,0.005,0.0027,0.0029,0.003,0.0,-0.0002,0.0026,0.0026,0.0026,0,0.009,0.0109,0.0105,0.0118,0.0125,0.0109,0.0125,0.0119,0.0106,0.0108,0.0094,0.0068,0.0046,0.0044,0.0049,0.0036,0.0014,0.0035,0.0033,0.0034,0.0034,0.0003,0.0,0.0029,0.0029,0.0028,0.0028,0,0.011,0.0127,0.0133,0.0151,0.0156,0.0165,0.0164,0.0166,0.0159,0.0152,0.0148,0.0116,0.0103,0.0095,0.0075,0.0073,0.0053,0.0041,0.0022,0.0039,0.0005,0.0002,0.0033,0.0032,0.0031,0.003,0,0,0.0119,0.0144,0.0148,0.0169,0.0178,0.0188,0.02,0.021,0.0225,0.0202,0.0218,0.0185,0.0167,0.0155,0.0131,0.0106,0.0087,0.0078,0.0075,0.0051,0.0031,0.0022,0.0017,0.0076,0.0075,0.0075,0.0006,0,0.0139,0.0177,0.0183,0.022,0.0243,0.0241,0.0258,0.0263,0.0261,0.0269,0.0236,0.0237,0.0192,0.0192,0.0161,0.0108,0.0079,0.0106,0.0014,0.0011,0.0004,0.0013,0.0074,0.0003,0.0002,0.0001,0.0001,0,0.0163,0.0189,0.0231,0.0273,0.0283,0.0301,0.0334,0.035,0.0351,0.035,0.0335,0.0309,0.0276,0.0239,0.0147,0.0167,0.0103,0.0054,0.005,0.0021,-0.0004,-0.002,-0.0007,-0.0006,-0.0006,-0.0005,-0.0005,0,0.0185,0.0227,0.0265,0.0278,0.0316,0.0338,0.036,0.0374,0.0406,0.0406,0.0425,0.0368,0.0358,0.0267,0.0158,0.0155,0.0051,0.0036,-0.0035,-0.0037,-0.0033,-0.0033,-0.003,-0.003,-0.003,-0.0029,-0.0029,0,0.0211,0.0243,0.0281,0.0304,0.0361,0.0375,0.0434,0.0444,0.0477,0.052,0.0474,0.0489,0.0365,0.0292,0.018,0.0059,0.0065,-0.0032,-0.0053,-0.0009,-0.0007,-0.0036,-0.0036,-0.0032,-0.0031,-0.0031,-0.003,0,0.023,0.025,0.0303,0.0352,0.0374,0.0419,0.0496,0.0542,0.0559,0.0616,0.0623,0.0581,0.0486,0.035,0.02,0.0102,-0.0023,-0.0068,-0.0015,-0.0032,-0.0103,-0.01,-0.015,-0.0151,-0.0151,-0.0152,-0.0153,0,0.0244,0.0271,0.0342,0.0387,0.0413,0.0483,0.054,0.0582,0.0636,0.0671,0.0704,0.0638,0.0586,0.0378,0.0218,0.0001,-0.0032,-0.0106,-0.0106,-0.0098,-0.0115,-0.011,-0.0105,-0.0154,-0.0154,-0.0154,-0.0154,0,0.0272,0.0295,0.0339,0.0431,0.05,0.0582,0.0662,0.0708,0.0758,0.0773,0.0779,0.0675,0.0571,0.0393,0.0223,0.0065,-0.0065,-0.0114,-0.0114,-0.0114,-0.0104,-0.0118,-0.0113,-0.0157,-0.0156,-0.0156,-0.0156,0,0.0294,0.0332,0.0394,0.0478,0.057,0.0662,0.0698,0.0764,0.0814,0.0842,0.0835,0.0721,0.065,0.0426,0.0268,0.0112,0.0071,0.0008,0.0001,0.0002,0.006,0.0097,0.009,0,0,0,0,0,0.0314,0.0363,0.0442,0.0534,0.0628,0.0679,0.0779,0.0808,0.0848,0.0864,0.0853,0.0754,0.054,0.0453,0.0298,0.0239,0.003,0.005,-0.0049,-0.017,-0.0167,-0.0126,0,0,0,0,0,0,0.0331,0.0397,0.0442,0.0571,0.0637,0.0743,0.0805,0.0829,0.084,0.0852,0.075,0.0695,0.0494,0.0626,0.0288,0.0242,0.0153,-0.0049,-0.0053,-0.0172,-0.0169,-0.0167,-0.0123,0,0,0,0,0]}]]